[[{"header":{"parameterUnit":"m.s-1","parameterCategory":1,"la1":30.2991,"la2":30.254,"lo1":-89.0895,"lo2":-89.0444,"dy":0.0017,"dx":0.0017,"nx":28,"ny":28,"refTime":"2025-05-25T03:00:00:Z","depth":0,"parameterNumber":2,"parameterNumberName":"U-component_of_WINDS"},"data":[0,0,0,0,0,0,0,0,0,0,0,0,0,0,0,0,0,0,0,0,0,0,0,0,0,0,0,0,0,0,0,0,0,0,0,0,0,0,0,0,0,0,0,0,0,0,0,0,0,0,0,0,0,0,0,0,0,0,-0.1006,-0.1005,0,-0.093,-0.093,-0.0929,-0.0871,-0.087,-0.087,-0.0869,-0.0791,-0.0789,-0.0787,0,0,0,0,0,0,0,0,0,0,0,0,0,-0.1099,-0.1098,-0.1006,-0.1005,-0.1004,-0.0931,-0.0929,-0.0928,-0.0871,-0.087,-0.087,-0.0869,-0.0791,-0.0789,-0.0787,0,0,0,0,0,0,0,0,0,0,0,0,0,-0.1045,-0.1097,-0.1006,-0.0967,-0.0962,-0.0931,-0.0929,-0.0928,-0.0871,-0.087,-0.087,-0.0869,-0.0792,-0.0789,-0.0787,-0.0788,0,0,-0.078,-0.0779,0,0,0,0,0,0,0,0,-0.1048,-0.1041,-0.0973,-0.0969,-0.0964,-0.0909,-0.0933,-0.0881,-0.0871,-0.0906,-0.0869,-0.0868,-0.0831,-0.0825,-0.0812,-0.0784,-0.0781,-0.0779,-0.0778,-0.0777,-0.0776,0,0,0,0,0,0,0,-0.1052,-0.1044,-0.0976,-0.0973,-0.0967,-0.0952,-0.0944,-0.0923,-0.0874,-0.0903,-0.0898,-0.089,-0.0828,-0.0815,-0.081,-0.078,-0.0779,-0.0777,-0.0776,-0.0775,-0.0748,-0.0749,0,0,0,0,0,0,-0.1062,-0.1048,-0.0978,-0.0974,-0.1005,-0.0951,-0.0942,-0.0928,-0.0874,-0.0865,-0.0891,-0.0888,-0.0819,-0.0813,-0.0807,-0.0804,-0.0777,-0.0775,-0.0773,-0.0747,-0.0748,-0.0749,0,0,0,0,0,0,-0.1064,-0.1056,-0.0982,-0.101,-0.0999,-0.095,-0.0935,-0.0927,-0.0914,-0.0865,-0.0855,-0.0887,-0.0819,-0.0811,-0.0793,-0.0801,-0.0774,-0.0771,-0.0746,-0.0747,-0.0748,-0.0799,0,0,0,0,0,0,-0.1067,-0.1057,-0.1058,-0.101,-0.0998,-0.097,-0.0936,-0.0926,-0.091,-0.0905,-0.0858,-0.085,-0.0817,-0.0797,-0.0791,-0.0797,-0.077,-0.0745,-0.0747,-0.0748,-0.0796,-0.0802,-0.0806,0,0,0,0,0,-0.1071,-0.1075,-0.1058,-0.105,-0.0997,-0.097,-0.0963,-0.0926,-0.0911,-0.091,-0.0879,-0.0851,-0.0801,-0.0796,-0.0788,-0.0794,-0.0745,-0.0746,-0.0748,-0.0794,-0.0801,-0.0806,0,0,0,0,0,0,-0.1125,-0.1068,-0.1049,-0.1038,-0.1009,-0.096,-0.0959,-0.0934,-0.0908,-0.0905,-0.0859,-0.0849,-0.0836,-0.0813,-0.0808,-0.0792,-0.0769,-0.077,-0.0807,-0.0813,-0.0818,-0.0823,-0.0768,0,0,0,0,0,-0.1136,-0.1119,-0.107,-0.1065,-0.1052,-0.1008,-0.0995,-0.0968,-0.0937,-0.0924,-0.0891,-0.0861,-0.0838,-0.0824,-0.0801,-0.0793,-0.0781,-0.0793,-0.0798,-0.0802,-0.0803,-0.0796,-0.08,-0.0754,-0.0754,-0.0754,0,0,-0.1157,-0.1124,-0.1116,-0.1075,-0.105,-0.1033,-0.0998,-0.0982,-0.0968,-0.0921,-0.0903,-0.0878,-0.0841,-0.0828,-0.0821,-0.0809,-0.0813,-0.0804,-0.0808,-0.0806,-0.0798,-0.0802,-0.0806,-0.0755,-0.0755,-0.0755,0,0,-0.1188,-0.1162,-0.1155,-0.113,-0.1092,-0.1063,-0.1061,-0.1016,-0.0998,-0.0979,-0.0943,-0.0926,-0.0888,-0.0863,-0.0845,-0.0867,-0.084,-0.086,-0.0885,-0.0879,-0.0883,-0.0886,-0.0893,-0.0896,-0.0861,-0.0861,-0.0861,0,-0.122,-0.1193,-0.1154,-0.1139,-0.1122,-0.1079,-0.1071,-0.1049,-0.1005,-0.0994,-0.0981,-0.0932,-0.0904,-0.0884,-0.089,-0.0877,-0.0873,-0.0865,-0.0886,-0.0888,-0.0891,-0.0897,-0.0899,-0.0864,-0.0863,-0.0863,-0.0863,0,-0.1234,-0.1216,-0.1215,-0.1174,-0.1156,-0.1145,-0.1103,-0.109,-0.1065,-0.1037,-0.1018,-0.0983,-0.0951,-0.0945,-0.092,-0.0922,-0.0915,-0.0895,-0.0871,-0.0898,-0.0903,-0.0905,-0.0868,-0.0867,-0.0866,-0.0865,0,0,-0.1297,-0.1234,-0.1234,-0.1215,-0.117,-0.1155,-0.1142,-0.1111,-0.11,-0.1071,-0.1058,-0.1027,-0.1008,-0.0988,-0.096,-0.0955,-0.0973,-0.0935,-0.0933,-0.0942,-0.0971,-0.0986,-0.099,-0.0955,-0.0956,-0.0956,-0.0974,0,-0.1321,-0.1294,-0.1258,-0.1244,-0.1226,-0.1185,-0.1173,-0.1144,-0.1118,-0.1098,-0.1069,-0.1047,-0.1023,-0.1011,-0.1004,-0.0972,-0.0978,-0.097,-0.0942,-0.0942,-0.0952,-0.0992,-0.1009,-0.1028,-0.0976,-0.0976,-0.0976,0,-0.1345,-0.1318,-0.1302,-0.1258,-0.1249,-0.1239,-0.1208,-0.119,-0.1156,-0.1137,-0.1115,-0.1085,-0.1067,-0.1047,-0.1022,-0.1018,-0.1004,-0.0987,-0.0987,-0.0982,-0.096,-0.0989,-0.1033,-0.1036,-0.0979,-0.0979,-0.0978,0,-0.1391,-0.1352,-0.1337,-0.1322,-0.127,-0.1264,-0.1242,-0.1207,-0.119,-0.1163,-0.1151,-0.1122,-0.1106,-0.1084,-0.1047,-0.1035,-0.1026,-0.1002,-0.1009,-0.101,-0.1008,-0.1009,-0.1051,-0.1001,-0.1,-0.1,-0.1,0,-0.1421,-0.1413,-0.1357,-0.1348,-0.1337,-0.1296,-0.1286,-0.126,-0.1229,-0.1214,-0.1176,-0.1163,-0.1114,-0.1095,-0.1065,-0.1049,-0.1042,-0.1026,-0.1018,-0.1029,-0.1031,-0.1019,-0.1016,-0.1001,-0.1001,-0.1001,-0.1001,0,-0.1472,-0.1434,-0.1415,-0.1367,-0.1355,-0.1349,-0.1308,-0.1297,-0.1269,-0.125,-0.1243,-0.1197,-0.1172,-0.1133,-0.1096,-0.1076,-0.1065,-0.1052,-0.1077,-0.1072,-0.108,-0.108,-0.1115,-0.1118,-0.1067,-0.1068,-0.1068,0,-0.1493,-0.1485,-0.1437,-0.1424,-0.1404,-0.1383,-0.1366,-0.1325,-0.1309,-0.1269,-0.1263,-0.1235,-0.121,-0.1172,-0.1135,-0.1107,-0.1093,-0.1107,-0.1088,-0.1099,-0.1092,-0.1093,-0.1092,-0.1111,-0.1112,-0.1113,-0.1113,0,-0.1534,-0.1516,-0.1493,-0.1464,-0.1445,-0.142,-0.1393,-0.1384,-0.1336,-0.132,-0.1294,-0.1275,-0.1237,-0.121,-0.1176,-0.1153,-0.1125,-0.112,-0.1119,-0.113,-0.1145,-0.1136,-0.1088,-0.1119,-0.1118,-0.1118,-0.1118,-0.1117,-0.157,-0.1561,-0.1526,-0.1502,-0.1477,-0.1452,-0.144,-0.1409,-0.1387,-0.1353,-0.133,-0.1306,-0.127,-0.1222,-0.12,-0.118,-0.1168,-0.1168,-0.1168,-0.1168,-0.1172,-0.1148,-0.1174,-0.1174,-0.1173,-0.1173,-0.1173,0,-0.1609,-0.1584,-0.1562,-0.1526,-0.1506,-0.1482,-0.1451,-0.1436,-0.1415,-0.1385,-0.1362,-0.1332,-0.1305,-0.1266,-0.1236,-0.1227,-0.1213,-0.122,-0.122,-0.1215,-0.1185,-0.1188,-0.1232,-0.1232,-0.1232,-0.1232,-0.1232,-0.1232,-0.1627,-0.1611,-0.1589,-0.1559,-0.1534,-0.151,-0.1494,-0.1471,-0.1447,-0.1415,-0.1392,-0.1367,-0.1333,-0.1301,-0.1274,-0.1264,-0.1254,-0.1265,-0.125,-0.1223,-0.1217,-0.1212,-0.1215,-0.1263,-0.1263,-0.1282,-0.1282,-0.1282]},{"header":{"parameterUnit":"m.s-1","parameterCategory":1,"la1":30.2991,"la2":30.254,"lo1":-89.0895,"lo2":-89.0444,"dy":0.0017,"dx":0.0017,"nx":28,"ny":28,"refTime":"2025-05-25T03:00:00:Z","depth":0,"parameterNumber":3,"parameterNumberName":"V-component_of_WINDS"},"data":[0,0,0,0,0,0,0,0,0,0,0,0,0,0,0,0,0,0,0,0,0,0,0,0,0,0,0,0,0,0,0,0,0,0,0,0,0,0,0,0,0,0,0,0,0,0,0,0,0,0,0,0,0,0,0,0,0,0,1.9518,1.9518,0,1.9475,1.9475,1.9474,1.948,1.948,1.9481,1.9482,1.9432,1.943,1.9428,0,0,0,0,0,0,0,0,0,0,0,0,0,1.9601,1.96,1.9518,1.9518,1.9517,1.9475,1.9475,1.9474,1.9479,1.948,1.9481,1.9482,1.9432,1.943,1.9428,0,0,0,0,0,0,0,0,0,0,0,0,0,1.9562,1.9599,1.9519,1.9515,1.9514,1.9475,1.9475,1.9474,1.9479,1.948,1.9481,1.9482,1.9433,1.943,1.9427,1.9387,0,0,1.9418,1.9417,0,0,0,0,0,0,0,0,1.9564,1.9559,1.9516,1.9515,1.9514,1.9484,1.9485,1.9444,1.9479,1.9492,1.9482,1.9483,1.9448,1.9444,1.9433,1.9385,1.9382,1.9418,1.9416,1.9415,1.9414,0,0,0,0,0,0,0,1.9567,1.9561,1.9501,1.9516,1.9514,1.9514,1.951,1.9478,1.9464,1.9491,1.9492,1.9487,1.9448,1.9436,1.9432,1.9382,1.9418,1.9415,1.9413,1.9412,1.9298,1.9297,0,0,0,0,0,0,1.9571,1.9563,1.9502,1.95,1.9543,1.9512,1.9507,1.9493,1.9465,1.9462,1.9486,1.9487,1.9441,1.9435,1.943,1.9381,1.9415,1.9412,1.941,1.9299,1.9298,1.9297,0,0,0,0,0,0,1.9573,1.9566,1.9504,1.9532,1.9524,1.9509,1.9493,1.9491,1.948,1.9461,1.9458,1.9477,1.9441,1.9434,1.9398,1.938,1.9411,1.9408,1.9301,1.9299,1.9297,1.9284,0,0,0,0,0,0,1.9575,1.9567,1.9552,1.9531,1.9522,1.9474,1.9492,1.9489,1.9475,1.9476,1.9451,1.9448,1.9441,1.9403,1.9395,1.9376,1.9405,1.9302,1.93,1.9298,1.9285,1.9281,1.9278,0,0,0,0,0,1.9578,1.9549,1.9551,1.9544,1.9504,1.9473,1.9468,1.9462,1.9474,1.9458,1.9446,1.9449,1.9383,1.9399,1.939,1.937,1.9304,1.9301,1.9298,1.9287,1.9282,1.9278,0,0,0,0,0,0,1.9565,1.9546,1.9549,1.9511,1.9494,1.9474,1.9455,1.9457,1.9435,1.9437,1.9429,1.9423,1.9387,1.9375,1.9393,1.933,1.9345,1.934,1.9339,1.9334,1.9331,1.9334,1.9403,0,0,0,0,0,1.9558,1.9537,1.952,1.9489,1.948,1.9469,1.9455,1.9453,1.9434,1.9426,1.9411,1.9391,1.9366,1.935,1.9325,1.9284,1.9278,1.9266,1.9262,1.9259,1.9255,1.9232,1.9227,1.9288,1.9288,1.9288,0,0,1.9543,1.953,1.9516,1.9486,1.9472,1.9448,1.9463,1.9437,1.9419,1.9421,1.9387,1.9375,1.9353,1.9314,1.9296,1.9303,1.9237,1.9256,1.9253,1.9251,1.9229,1.9223,1.9218,1.9286,1.9286,1.9286,0,0,1.9504,1.9492,1.9465,1.9451,1.9431,1.9424,1.9418,1.9398,1.9391,1.9357,1.9359,1.9336,1.9293,1.9277,1.9263,1.9219,1.922,1.9211,1.919,1.9169,1.9164,1.9159,1.9143,1.9138,1.9207,1.9207,1.9207,0,1.9487,1.9453,1.945,1.9424,1.9411,1.9415,1.9386,1.9373,1.9345,1.9335,1.9343,1.929,1.9275,1.9232,1.9222,1.921,1.9202,1.9213,1.9165,1.9161,1.9157,1.9141,1.9135,1.9206,1.9206,1.9206,1.9206,0,1.9433,1.941,1.939,1.9366,1.935,1.9323,1.9315,1.9298,1.9297,1.9289,1.9254,1.9236,1.9209,1.9198,1.9196,1.9156,1.9161,1.9167,1.9182,1.915,1.9135,1.9129,1.9204,1.9205,1.9205,1.9205,0,0,1.9383,1.9359,1.9352,1.9341,1.932,1.9301,1.9274,1.9249,1.9235,1.9216,1.9193,1.9157,1.9163,1.9147,1.9143,1.9124,1.909,1.9133,1.9132,1.9125,1.9044,1.9039,1.9033,1.9091,1.909,1.9089,1.9046,0,1.9342,1.9296,1.9293,1.9252,1.9229,1.9233,1.921,1.9193,1.9185,1.9163,1.9153,1.9128,1.9138,1.9129,1.911,1.9098,1.9074,1.9101,1.9068,1.9067,1.9074,1.9025,1.902,1.898,1.904,1.9039,1.9039,0,1.9287,1.9269,1.9225,1.9208,1.9199,1.9178,1.9155,1.9136,1.9117,1.9112,1.9095,1.9094,1.9065,1.9081,1.9041,1.906,1.9046,1.9038,1.9036,1.9032,1.9051,1.902,1.8967,1.8961,1.903,1.903,1.9031,0,1.9255,1.9219,1.9189,1.918,1.9159,1.9144,1.9134,1.9117,1.9102,1.9082,1.9072,1.9048,1.9034,1.9015,1.9007,1.902,1.8967,1.8982,1.8961,1.8961,1.8949,1.895,1.8893,1.8941,1.8941,1.8941,1.8941,0,1.9209,1.9182,1.9175,1.9156,1.9126,1.9122,1.9092,1.9083,1.9068,1.9046,1.9047,1.9026,1.9017,1.8995,1.8988,1.8955,1.8949,1.8944,1.8942,1.8943,1.8944,1.8934,1.8936,1.8939,1.894,1.894,1.894,0,1.9168,1.9162,1.9129,1.9113,1.9108,1.9087,1.9072,1.9053,1.9046,1.9019,1.9012,1.8999,1.8973,1.8964,1.8931,1.8926,1.8889,1.8889,1.8896,1.8895,1.8875,1.8877,1.8809,1.88,1.8854,1.8853,1.8853,0,1.9139,1.9119,1.9101,1.9088,1.9078,1.9057,1.9043,1.9038,1.9023,1.9001,1.8984,1.8959,1.8938,1.8896,1.8883,1.8858,1.8858,1.8836,1.8854,1.8856,1.8857,1.8859,1.8857,1.8832,1.8832,1.8831,1.8831,0,1.9088,1.9086,1.9067,1.9047,1.9031,1.9014,1.8998,1.8986,1.8979,1.8962,1.8936,1.8921,1.8889,1.8863,1.8838,1.8826,1.8827,1.8826,1.882,1.8821,1.8825,1.8822,1.8886,1.8827,1.8828,1.8828,1.8828,1.8828,1.9051,1.9034,1.902,1.8998,1.8986,1.8971,1.8953,1.8945,1.8924,1.8899,1.8897,1.8869,1.8851,1.8817,1.8805,1.8782,1.8787,1.8778,1.8776,1.8774,1.8772,1.8829,1.8777,1.8777,1.8777,1.8777,1.8777,0,1.9001,1.8992,1.8972,1.8951,1.8934,1.8939,1.8921,1.8906,1.8883,1.8867,1.8847,1.8818,1.8793,1.8779,1.8754,1.8738,1.8738,1.8732,1.8732,1.873,1.8769,1.8777,1.8732,1.8732,1.8732,1.8732,1.8732,1.8732,1.8972,1.8944,1.894,1.8905,1.8896,1.8871,1.886,1.8846,1.8834,1.8801,1.8782,1.8774,1.8758,1.8732,1.8709,1.8705,1.8696,1.8689,1.8686,1.8722,1.8727,1.8731,1.8739,1.8687,1.8687,1.8649,1.8648,1.8648]}]]